Location: Unspecified
(49.8670°N, 0.0000°E)
Time: 14:01:00
(UTC+00:00)

Vanguard 1 - Pass Details

Date: 25 June 2019
Orbit: 653 x 3830 km, 34.3° (Epoch: 15 July)

Event Time Altitude Azimuth Distance (km) Brightness Sun altitude
Rises 06:53:16 0° 268° (W) 6,093 13.5 25.7°
Reaches altitude 10° 06:59:15 10° 255° (WSW) 4,418 12.9 26.6°
Maximum altitude 07:06:14 19° 216° (SW) 2,934 12.3 27.8°
Drops below altitude 10° 07:11:12 10° 173° (S) 2,997 12.7 28.6°
Sets 07:14:16 0° 155° (SSE) 3,613 13.3 29.0°
